sat.trackr.live / text

‹ back to catalog

STARLINK-34185

NORAD 64744 · 2025-144W

PAYLOAD ACTIVE UNKNOWN

§ Identity

Operator
Country
US
Launch date
2025-07-02
Launch site
AFETR
Launch vehicle
Mass (kg)
RCS (m²)

Purposes: comms

External: N2YO · Heavens-Above · Gunter

§ Orbital elements

Epoch: 2026-09-20T12:45:52.756704Z

Period
93.85 min
Inclination
53.1607°
Eccentricity
0.0001098
Mean motion
15.34417194 rev/d
Perigee alt
461.9 km
Apogee alt
463.4 km
Semi-major
6,840.8 km
B*
8.1746e-4
RAAN
353.8503°
Arg perigee
71.5956°
Mean anomaly
288.5166°
Rev number
6,957

§ Raw data

STARLINK-341851 64744U 25144W   26263.53186061  .00027359  00000+0  81746-3 0  99942 64744  53.1607 353.8503 0001098  71.5956 288.5166 15.34417194 69579

JSON: /api/v1/satellites/64744 · /tle

For live sub-satellite position, see the globe view (requires WebGL).

§ Visibility from observer

Set your observer location to see the next 7 days of passes ≥ 10°. The values pass through the URL so the page stays shareable.

No JS? Fill the form by hand. The geolocation button needs JavaScript.